Regional Weather Roundup
Issued by NWS Green Bay, WI

Home | Current Version | Previous Version | Graphics & Text | Print | Product List | Glossary Off
Versions: 1 2 3 4 5 6 7 8 9 10 11 12 13 14 15 16 17 18 19 20 21 22 23 24 25 26 27 28 29 30 31 32 33 34 35 36 37 38 39 40 41 42 43 44 45 46 47 48 49 50

000
ASUS43 KGRB 170601
RWRGRB

NORTH-CENTRAL AND NORTHEAST WISCONSIN REGIONAL WEATHER ROUNDUP
NATIONAL WEATHER SERVICE GREEN BAY WI
100 AM CDT THU AUG 17 2017

WIZ005-009-010>012-018-019-170700-
NORTH CENTRAL WISCONSIN

CITY           SKY/WX    TMP DP  RH WIND       PRES   REMARKS
IRONWOOD       NOT AVBL
MANITOWISH WTR NOT AVBL
ARBOR VITAE    NOT AVBL
EAGLE RIVER    NOT AVBL
LAND O LAKES   CLOUDY    63  56  77 SE9       29.84F
RHINELANDER    CLOUDY    63  59  87 E9        29.80F
PHILLIPS       RAIN      63  62  98 E6        29.77R
ANTIGO         NOT AVBL
TOMAHAWK       NOT AVBL
MERRILL        NOT AVBL
$$

WIZ013-073-170700-
NORTHEAST WISCONSIN

CITY           SKY/WX    TMP DP  RH WIND       PRES   REMARKS
IRON MOUNTAIN  CLOUDY    65  60  84 E6        29.82F
MARINETTE      NOT AVBL
$$

WIZ017-030-035>037-045-170700-
CENTRAL WISCONSIN

CITY           SKY/WX    TMP DP  RH WIND       PRES   REMARKS
MEDFORD        NOT AVBL
WAUSAU         LGT RAIN  63  62  97 E15       29.75F FOG
MOSINEE        NOT AVBL
MARSHFIELD     CLOUDY    65  63  93 E13       29.72F
WISC RAPIDS    CLOUDY    66  65  96 SE8       29.74F
STEVENS POINT  NOT AVBL
WAUPACA        NOT AVBL
SHAWANO        RAIN      67  64  89 E10       29.78F
CLINTONVILLE   LGT RAIN  64  63  94 E9        29.78F
WAUTOMA        NOT AVBL
$$

WIZ038-039-048-051-170700-
FOX VALLEY

CITY           SKY/WX    TMP DP  RH WIND       PRES   REMARKS
NWS GREEN BAY  LGT RAIN  67  67 100 CALM      29.78F
APPLETON       NOT AVBL
OSHKOSH        NOT AVBL
FOND DU LAC    NOT AVBL
$$

WIZ022-050-052-170700-
EAST CENTRAL WISCONSIN

CITY           SKY/WX    TMP DP  RH WIND       PRES   REMARKS
EPHRAIM        NOT AVBL
WASHINGTON ISL NOT AVBL
STURGEON BAY   NOT AVBL
MANITOWOC      NOT AVBL
SHEBOYGAN      NOT AVBL
$$

LMZ563-521-522-541>543-170700-
LAKESHORE

STATION/POSITION TIME  TEMP    WIND        PRES    VSBY  WAVE
                       AIR SEA DIR/SP/G                  HT/PER
                 (UTC) (F)     (DEG/KT/KT) (MB)    (MI)  (FT/S)
SHEBOYGAN LKSHOR 0500   70     120/  9/ 10 1009.3F
KEWAUNEE LKSHORE 0530   70     150/  5/  7 1009.1F
NORTHPORT PIER   0540   70     110/  9/ 11 1010.2F
N MID LAKE BUOY  0450   69 68  120/ 10/ 12 1011.7F         1/ 3
S GREEN BAY BUOY 0500   70 72  110/ 14/ 17 1009.4
SISTER BAY LKSHO 0518   70     110/  9/ 13   N/A
MENOMINEE LKSHOR 0530   70      70/  9/ 11 1009.4F
$$




USA.gov is the U.S. government's official web portal to all federal, state and local government web resources and services.